Location: Claremont
(33.9858°S, 18.4575°E)
Time: 03:08:05
(UTC+00:00)

ATLAS 3B R/B - Pass Details

Date: 03 March 2021
Orbit: 1006 x 1189 km, 63.8° (Epoch: 01 April)

Event Time Altitude Azimuth Distance (km) Brightness Sun altitude
Rises 19:34:28 0° 221° (SW) 3,916 6.8 -27.2°
Reaches altitude 10° 19:37:29 10° 231° (SW) 2,924 5.9 -27.7°
Maximum altitude 19:43:22 31° 290° (WNW) 1,739 4.1 -28.7°
Enters shadow 19:46:58 19° 336° (NNW) 2,220 4.2 -29.4°
